• In Deutschland
  • Länderverzeichnis
  • Für 7 Tage
  • Wassertemperatur
  • Satellitenkarten
  • Wetterkarte
  • Widgets
  • user-avatar
    Anmelden

    Stündliche Wetter Eislingen

    Heute, 17 Oktober, Dienstag

    Zeit Temperatur Niederschläge Wind Luftdruck Luftfeuchtigkeit
    00:00 +14°C° 0 mm 2 m/S 738 mmHg 78%
    01:00 +13°C° 0 mm 1 m/S 738 mmHg 78%
    02:00 +13°C° 0 mm 1 m/S 737 mmHg 78%
    03:00 +13°C° 0 mm 1 m/S 737 mmHg 77%
    04:00 +13°C° 0 mm 1 m/S 737 mmHg 77%
    05:00 +12°C° 0 mm 1 m/S 737 mmHg 77%
    06:00 +12°C° 0 mm 1 m/S 737 mmHg 76%
    07:00 +12°C° 0 mm 1 m/S 737 mmHg 75%
    08:00 +14°C° 0 mm 1 m/S 737 mmHg 69%
    09:00 +16°C° 0 mm 1 m/S 737 mmHg 63%
    10:00 +20°C° 0 mm 1 m/S 737 mmHg 57%
    11:00 +21°C° 0 mm 1 m/S 737 mmHg 54%
    12:00 +20°C° 0 mm 0 m/S 736 mmHg 50%
    13:00 +22°C° 0 mm 0 m/S 736 mmHg 47%
    14:00 +21°C° 0 mm 0 m/S 735 mmHg 51%
    15:00 +21°C° 0 mm 0 m/S 735 mmHg 56%
    16:00 +22°C° 0 mm 1 m/S 734 mmHg 60%
    17:00 +20°C° 0 mm 1 m/S 734 mmHg 66%
    18:00 +18°C° 0 mm 1 m/S 734 mmHg 71%
    19:00 +14°C° 0 mm 0 m/S 734 mmHg 77%
    20:00 +14°C° 0 mm 1 m/S 734 mmHg 78%
    21:00 +14°C° 0 mm 1 m/S 733 mmHg 80%
    22:00 +14°C° 0 mm 1 m/S 733 mmHg 81%
    23:00 +13°C° 0 mm 1 m/S 733 mmHg 81%

    Morgen, 18 Oktober, Mittwoch

    Zeit Temperatur Niederschläge Wind Luftdruck Luftfeuchtigkeit
    00:00 +13°C° 0 mm 1 m/S 733 mmHg 82%
    01:00 +13°C° 0 mm 1 m/S 733 mmHg 82%
    02:00 +13°C° 0 mm 1 m/S 733 mmHg 81%
    03:00 +12°C° 0 mm 1 m/S 732 mmHg 81%
    04:00 +12°C° 0 mm 1 m/S 732 mmHg 81%
    05:00 +12°C° 0 mm 1 m/S 732 mmHg 80%
    06:00 +11°C° 0 mm 1 m/S 732 mmHg 80%
    07:00 +11°C° 0 mm 1 m/S 732 mmHg 79%
    08:00 +13°C° 0 mm 1 m/S 732 mmHg 72%
    09:00 +16°C° 0 mm 1 m/S 732 mmHg 65%
    10:00 +19°C° 0 mm 1 m/S 732 mmHg 58%
    11:00 +20°C° 0 mm 1 m/S 732 mmHg 54%
    12:00 +21°C° 0 mm 1 m/S 731 mmHg 50%
    13:00 +22°C° 0 mm 1 m/S 731 mmHg 47%
    14:00 +22°C° 0 mm 1 m/S 731 mmHg 51%
    15:00 +21°C° 0 mm 1 m/S 731 mmHg 55%
    16:00 +21°C° 0 mm 1 m/S 730 mmHg 60%
    17:00 +19°C° 0 mm 1 m/S 730 mmHg 65%
    18:00 +16°C° 0 mm 1 m/S 731 mmHg 70%
    19:00 +14°C° 0 mm 1 m/S 731 mmHg 75%
    20:00 +13°C° 0 mm 1 m/S 731 mmHg 77%
    21:00 +13°C° 0 mm 1 m/S 731 mmHg 78%
    22:00 +12°C° 0 mm 1 m/S 731 mmHg 79%
    23:00 +12°C° 0 mm 1 m/S 731 mmHg 80%

    übermorgen, 19 Oktober, Donnerstag

    Zeit Temperatur Niederschläge Wind Luftdruck Luftfeuchtigkeit
    00:00 +12°C° 0 mm 1 m/S 731 mmHg 81%
    01:00 +12°C° 0 mm 1 m/S 731 mmHg 81%
    02:00 +11°C° 0 mm 1 m/S 731 mmHg 82%
    03:00 +11°C° 0 mm 1 m/S 730 mmHg 83%
    04:00 +11°C° 0 mm 1 m/S 730 mmHg 83%
    05:00 +11°C° 0 mm 1 m/S 730 mmHg 84%
    06:00 +10°C° 0 mm 1 m/S 730 mmHg 85%
    07:00 +10°C° 0 mm 1 m/S 730 mmHg 85%
    08:00 +12°C° 0 mm 1 m/S 730 mmHg 79%
    09:00 +15°C° 0 mm 1 m/S 730 mmHg 72%
    10:00 +18°C° 0 mm 1 m/S 730 mmHg 66%
    11:00 +19°C° 0 mm 1 m/S 730 mmHg 62%
    12:00 +20°C° 0 mm 1 m/S 730 mmHg 58%
    13:00 +22°C° 0 mm 1 m/S 730 mmHg 54%
    14:00 +21°C° 0 mm 1 m/S 730 mmHg 58%
    15:00 +21°C° 0 mm 1 m/S 729 mmHg 62%
    16:00 +21°C° 0 mm 1 m/S 729 mmHg 66%
    17:00 +19°C° 0 mm 1 m/S 729 mmHg 71%
    18:00 +16°C° 0 mm 1 m/S 729 mmHg 77%
    19:00 +14°C° 0 mm 1 m/S 729 mmHg 83%
    20:00 +13°C° 0 mm 1 m/S 729 mmHg 83%
    21:00 +13°C° 0 mm 1 m/S 729 mmHg 84%
    22:00 +13°C° 0 mm 1 m/S 729 mmHg 85%
    23:00 +12°C° 0 mm 1 m/S 729 mmHg 83%

    20 Oktober, Freitag

    Zeit Temperatur Niederschläge Wind Luftdruck Luftfeuchtigkeit
    00:00 +12°C° 0 mm 1 m/S 729 mmHg 81%
    01:00 +12°C° 0 mm 1 m/S 729 mmHg 80%
    02:00 +12°C° 0 mm 2 m/S 730 mmHg 78%
    03:00 +12°C° 0 mm 2 m/S 730 mmHg 76%
    04:00 +12°C° 0 mm 2 m/S 730 mmHg 73%
    05:00 +12°C° 0 mm 2 m/S 730 mmHg 73%
    06:00 +12°C° 0 mm 2 m/S 730 mmHg 72%
    07:00 +12°C° 0 mm 2 m/S 730 mmHg 72%
    08:00 +13°C° 0,1 mm 3 m/S 731 mmHg 72%
    09:00 +14°C° 0,1 mm 3 m/S 731 mmHg 71%
    10:00 +17°C° 0,1 mm 4 m/S 732 mmHg 71%
    11:00 +18°C° 0 mm 4 m/S 732 mmHg 68%
    12:00 +19°C° 0 mm 4 m/S 732 mmHg 65%
    13:00 +20°C° 0 mm 4 m/S 732 mmHg 62%
    14:00 +20°C° 0 mm 4 m/S 732 mmHg 65%
    15:00 +19°C° 0 mm 3 m/S 732 mmHg 68%
    16:00 +19°C° 0 mm 2 m/S 732 mmHg 71%
    17:00 +17°C° 0 mm 2 m/S 732 mmHg 76%
    18:00 +16°C° 0 mm 2 m/S 732 mmHg 81%
    19:00 +14°C° 0 mm 2 m/S 732 mmHg 86%
    20:00 +14°C° 0 mm 2 m/S 732 mmHg 87%
    21:00 +13°C° 0 mm 2 m/S 732 mmHg 88%
    22:00 +13°C° 0 mm 2 m/S 731 mmHg 89%
    23:00 +13°C° 0 mm 2 m/S 731 mmHg 88%

    21 Oktober, Samstag

    Zeit Temperatur Niederschläge Wind Luftdruck Luftfeuchtigkeit
    00:00 +13°C° 0 mm 2 m/S 731 mmHg 86%
    01:00 +13°C° 0 mm 2 m/S 730 mmHg 85%
    02:00 +13°C° 0 mm 2 m/S 730 mmHg 83%
    03:00 +13°C° 0 mm 2 m/S 730 mmHg 80%
    04:00 +13°C° 0 mm 2 m/S 730 mmHg 78%
    05:00 +13°C° 0 mm 2 m/S 730 mmHg 78%
    06:00 +12°C° 0 mm 3 m/S 730 mmHg 78%
    07:00 +12°C° 0 mm 3 m/S 729 mmHg 78%
    08:00 +13°C° 0 mm 3 m/S 729 mmHg 74%
    09:00 +14°C° 0 mm 3 m/S 729 mmHg 71%
    10:00 +17°C° 0 mm 4 m/S 730 mmHg 67%
    11:00 +15°C° 0,6 mm 4 m/S 729 mmHg 73%
    12:00 +15°C° 0,6 mm 4 m/S 729 mmHg 79%
    13:00 +15°C° 0,6 mm 4 m/S 729 mmHg 85%
    14:00 +15°C° 1,4 mm 4 m/S 729 mmHg 87%
    15:00 +14°C° 1,4 mm 4 m/S 729 mmHg 89%
    16:00 +14°C° 1,4 mm 4 m/S 729 mmHg 91%
    17:00 +13°C° 0,7 mm 4 m/S 730 mmHg 91%
    18:00 +13°C° 0,7 mm 3 m/S 730 mmHg 91%
    19:00 +12°C° 0,7 mm 3 m/S 730 mmHg 91%
    20:00 +12°C° 0,5 mm 3 m/S 730 mmHg 90%
    21:00 +11°C° 0,5 mm 4 m/S 731 mmHg 90%
    22:00 +11°C° 0,5 mm 4 m/S 731 mmHg 89%
    23:00 +11°C° 0,2 mm 4 m/S 731 mmHg 89%

    22 Oktober, Sonntag

    Zeit Temperatur Niederschläge Wind Luftdruck Luftfeuchtigkeit
    00:00 +10°C° 0,2 mm 3 m/S 731 mmHg 88%
    01:00 +10°C° 0,2 mm 3 m/S 731 mmHg 88%
    02:00 +9°C° 0,2 mm 3 m/S 731 mmHg 88%
    03:00 +9°C° 0,2 mm 3 m/S 731 mmHg 89%
    04:00 +9°C° 0,2 mm 3 m/S 731 mmHg 89%
    05:00 +8°C° 0,3 mm 3 m/S 731 mmHg 90%
    06:00 +8°C° 0,3 mm 3 m/S 731 mmHg 91%
    07:00 +8°C° 0,3 mm 3 m/S 731 mmHg 91%
    08:00 +8°C° 0,3 mm 3 m/S 731 mmHg 88%
    09:00 +8°C° 0,3 mm 4 m/S 731 mmHg 84%
    10:00 +8°C° 0,3 mm 4 m/S 731 mmHg 81%
    11:00 +8°C° 0,2 mm 4 m/S 731 mmHg 78%
    12:00 +9°C° 0,2 mm 5 m/S 731 mmHg 74%
    13:00 +9°C° 0,2 mm 5 m/S 731 mmHg 71%
    14:00 +9°C° 0,2 mm 5 m/S 731 mmHg 71%
    15:00 +9°C° 0,2 mm 5 m/S 731 mmHg 71%
    16:00 +10°C° 0,2 mm 4 m/S 731 mmHg 71%
    17:00 +8°C° 0,1 mm 4 m/S 732 mmHg 74%
    18:00 +7°C° 0,1 mm 4 m/S 732 mmHg 77%
    19:00 +6°C° 0,1 mm 4 m/S 732 mmHg 81%
    20:00 +6°C° 0,1 mm 5 m/S 732 mmHg 81%
    21:00 +6°C° 0,1 mm 5 m/S 732 mmHg 81%
    22:00 +5°C° 0,1 mm 6 m/S 732 mmHg 81%
    23:00 +5°C° 0,2 mm 6 m/S 732 mmHg 83%
    Mehr zeigen